DLH53 LEPA-HEGN

Flight info

Callsign DLH53
Flight time 3h 31m
Altitude 40000
Route MORSS DCT BAVON DCT ORKUM DCT ELSAG DCT ALG/N0479F390 DCT LEDRO DCT ADAMI DCT ADEXI DCT OLLEK DCT ARLOS/N0484F410 DCT SALUN N705 MMA P751 DASUM Y234 FYM M872 SEMRU W727 OBTAV L315 SOKOT SOKOT1A
Aircraft A35K/H-SDE2E3GHIJ3J4J5LM1ORWXY/LB1D1

Departure

Time 2026-05-05 11:43
Airport Palma de Mallorca Airport (LEPA)

Arrival

Time 2026-05-05 15:15
Airport Hurghada International Airport (HEGN)
Time Latitude Longitude Altitude Speed Heading
2026-05-05 11:19 39.55523 2.73410 44 ft 0 kts 276°
2026-05-05 11:38 39.55523 2.73408 44 ft 1 kts 272°
2026-05-05 11:38 39.55519 2.73401 44 ft 1 kts 237°
2026-05-05 11:38 39.55505 2.73394 44 ft 4 kts 199°
2026-05-05 11:38 39.55473 2.73413 44 ft 7 kts 128°
2026-05-05 11:39 39.55471 2.73500 43 ft 13 kts 66°
2026-05-05 11:39 39.55547 2.73550 44 ft 14 kts 343°
2026-05-05 11:39 39.55645 2.73511 44 ft 16 kts 13°
2026-05-05 11:39 39.55713 2.73623 44 ft 18 kts 60°
2026-05-05 11:40 39.55781 2.73772 44 ft 21 kts 57°
2026-05-05 11:40 39.55864 2.73942 44 ft 24 kts 58°
2026-05-05 11:40 39.55955 2.74138 44 ft 27 kts 59°
2026-05-05 11:40 39.56057 2.74354 44 ft 29 kts 58°
2026-05-05 11:41 39.56183 2.74439 44 ft 17 kts 327°
2026-05-05 11:41 39.56244 2.74321 44 ft 15 kts 266°
2026-05-05 11:41 39.56197 2.74200 44 ft 10 kts 235°
2026-05-05 11:41 39.56196 2.74197 44 ft 0 kts 237°
2026-05-05 11:42 39.56195 2.74196 44 ft 1 kts 237°
2026-05-05 11:42 39.56177 2.74159 44 ft 15 kts 237°
2026-05-05 11:42 39.55987 2.73766 44 ft 90 kts 238°
2026-05-05 11:43 39.55535 2.72809 44 ft 157 kts 238°
2026-05-05 11:43 39.54895 2.71501 580 ft 173 kts 238°
2026-05-05 11:43 39.54258 2.70202 1562 ft 174 kts 236°
2026-05-05 11:43 39.53580 2.68782 2136 ft 195 kts 237°
2026-05-05 11:44 39.52846 2.67258 2879 ft 202 kts 238°
2026-05-05 11:44 39.52093 2.65690 3668 ft 207 kts 236°
2026-05-05 11:44 39.51321 2.64098 4537 ft 211 kts 236°
2026-05-05 11:44 39.50492 2.62489 5336 ft 217 kts 231°
2026-05-05 11:45 39.49361 2.61203 6184 ft 223 kts 214°
2026-05-05 11:45 39.47948 2.60103 6572 ft 251 kts 211°
2026-05-05 11:45 39.46337 2.58944 6940 ft 279 kts 210°
2026-05-05 11:45 39.44446 2.57984 7251 ft 309 kts 192°
2026-05-05 11:46 39.42219 2.58193 7742 ft 337 kts 164°
2026-05-05 11:46 39.40062 2.59365 8795 ft 340 kts 156°
2026-05-05 11:46 39.38088 2.61034 10233 ft 334 kts 140°
2026-05-05 11:46 39.36607 2.63355 11289 ft 341 kts 127°
2026-05-05 11:47 39.35412 2.66111 11764 ft 364 kts 118°
2026-05-05 11:47 39.34449 2.69232 12253 ft 382 kts 112°
2026-05-05 11:47 39.33688 2.72522 12953 ft 392 kts 108°
2026-05-05 11:47 39.33035 2.75975 13725 ft 399 kts 106°
2026-05-05 11:48 39.31829 2.83105 15125 ft 413 kts 105°
2026-05-05 11:48 39.31210 2.86750 15830 ft 419 kts 106°
2026-05-05 11:48 39.30558 2.90489 16587 ft 425 kts 106°
2026-05-05 11:49 39.29888 2.94236 17299 ft 431 kts 107°
2026-05-05 11:49 39.29211 2.97965 17995 ft 436 kts 107°
2026-05-05 11:49 39.28507 3.01802 18650 ft 442 kts 107°
2026-05-05 11:49 39.27791 3.05687 19280 ft 447 kts 107°
2026-05-05 11:50 39.27069 3.09596 19999 ft 450 kts 107°
2026-05-05 11:50 39.26339 3.13542 20658 ft 456 kts 108°
2026-05-05 11:50 39.25597 3.17547 21291 ft 462 kts 108°
2026-05-05 11:50 39.24845 3.21599 21947 ft 467 kts 108°
2026-05-05 11:51 39.24083 3.25703 22615 ft 473 kts 108°
2026-05-05 11:51 39.23309 3.29856 23231 ft 479 kts 108°
2026-05-05 11:51 39.22524 3.34061 23816 ft 484 kts 109°
2026-05-05 11:51 39.21732 3.38297 24404 ft 488 kts 109°
2026-05-05 11:52 39.20933 3.42569 25032 ft 491 kts 109°
2026-05-05 11:52 39.20129 3.46858 25629 ft 494 kts 109°
2026-05-05 11:52 39.19316 3.51182 26222 ft 498 kts 109°
2026-05-05 11:52 39.18495 3.55535 26809 ft 501 kts 109°
2026-05-05 11:53 39.17668 3.59912 27377 ft 505 kts 109°
2026-05-05 11:53 39.16832 3.64325 27955 ft 508 kts 109°
2026-05-05 11:53 39.15989 3.68768 28524 ft 512 kts 109°
2026-05-05 11:53 39.15139 3.73235 29079 ft 515 kts 109°
2026-05-05 11:54 39.14281 3.77731 29609 ft 519 kts 109°
2026-05-05 11:54 39.13405 3.82317 30099 ft 523 kts 109°
2026-05-05 11:54 39.12530 3.86883 30515 ft 526 kts 109°
2026-05-05 11:54 39.11651 3.91465 30946 ft 528 kts 109°
2026-05-05 11:55 39.10769 3.96068 31366 ft 530 kts 109°
2026-05-05 11:55 39.09883 4.00678 31769 ft 533 kts 110°
2026-05-05 11:55 39.08987 4.05311 32228 ft 532 kts 110°
2026-05-05 11:55 39.08096 4.09920 32814 ft 529 kts 110°
2026-05-05 11:56 39.07206 4.14508 33391 ft 527 kts 110°
2026-05-05 11:56 39.06320 4.19067 33933 ft 525 kts 110°
2026-05-05 11:56 39.05444 4.23557 34298 ft 525 kts 110°
2026-05-05 11:56 39.04549 4.28124 34593 ft 527 kts 110°
2026-05-05 11:57 39.03650 4.32693 34908 ft 527 kts 110°
2026-05-05 11:57 39.02749 4.37262 35287 ft 527 kts 109°
2026-05-05 11:57 39.01852 4.41819 35617 ft 527 kts 109°
2026-05-05 11:57 39.00950 4.46398 35940 ft 528 kts 109°
2026-05-05 11:58 39.00047 4.50971 36256 ft 528 kts 109°
2026-05-05 11:58 38.99141 4.55551 36561 ft 529 kts 109°
2026-05-05 11:58 38.98231 4.60131 36819 ft 530 kts 109°
2026-05-05 11:58 38.97317 4.64724 37072 ft 531 kts 109°
2026-05-05 11:59 38.96401 4.69317 37382 ft 531 kts 109°
2026-05-05 11:59 38.95484 4.73907 37685 ft 531 kts 109°
2026-05-05 11:59 38.94564 4.78501 37984 ft 531 kts 109°
2026-05-05 11:59 38.93642 4.83091 38277 ft 531 kts 109°
2026-05-05 12:00 38.92719 4.87681 38542 ft 531 kts 109°
2026-05-05 12:00 38.91795 4.92261 38778 ft 530 kts 109°
2026-05-05 12:00 38.90868 4.96846 38992 ft 530 kts 109°
2026-05-05 12:00 38.89943 5.01414 39211 ft 529 kts 109°
2026-05-05 12:01 38.89015 5.05987 39429 ft 529 kts 109°
2026-05-05 12:01 38.88087 5.10548 39634 ft 528 kts 109°
2026-05-05 12:01 38.87156 5.15114 39830 ft 528 kts 109°
2026-05-05 12:01 38.86225 5.19668 39946 ft 530 kts 109°
2026-05-05 12:02 38.84353 5.28800 39968 ft 530 kts 109°
2026-05-05 12:02 38.82472 5.37935 39967 ft 530 kts 109°
2026-05-05 12:03 38.80586 5.47057 39966 ft 529 kts 109°
2026-05-05 12:03 38.78692 5.56163 39969 ft 529 kts 109°
2026-05-05 12:04 38.76793 5.65274 39971 ft 529 kts 109°
2026-05-05 12:04 38.74901 5.74307 39946 ft 529 kts 108°
2026-05-05 12:05 38.72988 5.83405 39972 ft 529 kts 108°
2026-05-05 12:05 38.71069 5.92490 39972 ft 529 kts 108°
2026-05-05 12:06 38.69143 6.01572 39975 ft 529 kts 108°
2026-05-05 12:06 38.67207 6.10656 39972 ft 529 kts 108°
2026-05-05 12:07 38.65268 6.19723 39977 ft 528 kts 108°
2026-05-05 12:07 38.63321 6.28788 39976 ft 528 kts 109°
2026-05-05 12:08 38.61369 6.37840 39977 ft 528 kts 109°
2026-05-05 12:08 38.59408 6.46896 39964 ft 528 kts 109°
2026-05-05 12:09 38.57440 6.55946 39980 ft 528 kts 109°
2026-05-05 12:09 38.55464 6.64995 39978 ft 528 kts 109°
2026-05-05 12:10 38.53484 6.74033 39986 ft 528 kts 109°
2026-05-05 12:10 38.51496 6.83065 39986 ft 528 kts 109°
2026-05-05 12:11 38.49499 6.92096 39986 ft 528 kts 109°
2026-05-05 12:11 38.47497 7.01118 39986 ft 528 kts 109°
2026-05-05 12:12 38.45826 7.08619 39988 ft 528 kts 109°
2026-05-05 12:12 38.43813 7.17632 39987 ft 528 kts 109°
2026-05-05 12:13 38.41798 7.26627 39989 ft 527 kts 109°
2026-05-05 12:13 38.39769 7.35618 39990 ft 527 kts 109°
2026-05-05 12:14 38.37743 7.44590 39990 ft 527 kts 109°
2026-05-05 12:14 38.35702 7.53567 39984 ft 527 kts 109°
2026-05-05 12:15 38.33657 7.62525 39986 ft 527 kts 109°
2026-05-05 12:15 38.31606 7.71484 39991 ft 527 kts 109°
2026-05-05 12:16 38.29549 7.80436 39995 ft 527 kts 109°
2026-05-05 12:16 38.27487 7.89375 39993 ft 527 kts 109°
2026-05-05 12:17 38.25417 7.98316 39989 ft 526 kts 109°
2026-05-05 12:17 38.23343 8.07238 39998 ft 526 kts 109°
2026-05-05 12:18 38.21262 8.16159 39996 ft 526 kts 109°
2026-05-05 12:18 38.19174 8.25075 39996 ft 526 kts 109°
2026-05-05 12:19 38.17082 8.33973 39996 ft 526 kts 109°
2026-05-05 12:19 38.14994 8.42818 39998 ft 526 kts 109°
2026-05-05 12:20 38.12886 8.51717 39999 ft 526 kts 109°
2026-05-05 12:20 38.10771 8.60613 39999 ft 526 kts 109°
2026-05-05 12:21 38.08651 8.69496 40002 ft 526 kts 109°
2026-05-05 12:21 38.06522 8.78384 40001 ft 526 kts 109°
2026-05-05 12:22 38.04388 8.87261 40003 ft 526 kts 109°
2026-05-05 12:22 38.02248 8.96128 39999 ft 526 kts 109°
2026-05-05 12:23 38.00100 9.04995 39999 ft 526 kts 109°
2026-05-05 12:23 37.97944 9.13860 39995 ft 526 kts 109°
2026-05-05 12:24 37.95786 9.22723 39999 ft 527 kts 109°
2026-05-05 12:24 37.93612 9.31595 39997 ft 527 kts 109°
2026-05-05 12:25 37.91434 9.40448 40001 ft 527 kts 109°
2026-05-05 12:25 37.89250 9.49295 39987 ft 527 kts 109°
2026-05-05 12:26 37.87073 9.58088 39997 ft 527 kts 109°
2026-05-05 12:26 37.84877 9.66925 39996 ft 526 kts 109°
2026-05-05 12:27 37.82675 9.75754 40004 ft 526 kts 109°
2026-05-05 12:27 37.80450 9.84647 40004 ft 526 kts 109°
2026-05-05 12:28 37.78250 9.93403 40003 ft 527 kts 109°
2026-05-05 12:28 37.76026 10.02228 39993 ft 526 kts 109°
2026-05-05 12:29 37.73796 10.11041 40009 ft 527 kts 109°
2026-05-05 12:29 37.71560 10.19848 40018 ft 527 kts 109°
2026-05-05 12:30 37.69318 10.28652 40018 ft 526 kts 110°
2026-05-05 12:30 37.67073 10.37434 40018 ft 526 kts 110°
2026-05-05 12:31 37.64819 10.46221 40023 ft 526 kts 110°
2026-05-05 12:31 37.62561 10.54991 40023 ft 526 kts 110°
2026-05-05 12:32 37.60303 10.63753 40028 ft 525 kts 110°
2026-05-05 12:32 37.58032 10.72502 40034 ft 525 kts 110°
2026-05-05 12:33 37.55754 10.81246 40031 ft 525 kts 110°
2026-05-05 12:33 37.53475 10.89977 40042 ft 525 kts 110°
2026-05-05 12:34 37.51214 10.98609 40043 ft 525 kts 110°
2026-05-05 12:34 37.48923 11.07326 40048 ft 525 kts 110°
2026-05-05 12:35 37.46625 11.16041 40045 ft 525 kts 110°
2026-05-05 12:35 37.44317 11.24761 40045 ft 524 kts 110°
2026-05-05 12:36 37.42007 11.33460 40047 ft 524 kts 111°
2026-05-05 12:36 37.39699 11.42125 40039 ft 522 kts 110°
2026-05-05 12:37 37.37385 11.50776 40057 ft 522 kts 110°
2026-05-05 12:37 37.35068 11.59420 40056 ft 522 kts 110°
2026-05-05 12:38 37.32759 11.68000 40059 ft 522 kts 110°
2026-05-05 12:38 37.30433 11.76615 40067 ft 521 kts 110°
2026-05-05 12:39 37.28099 11.85234 40065 ft 521 kts 110°
2026-05-05 12:39 37.25758 11.93850 40069 ft 521 kts 110°
2026-05-05 12:40 37.23413 12.02451 40066 ft 521 kts 111°
2026-05-05 12:40 37.21059 12.11054 40073 ft 522 kts 110°
2026-05-05 12:41 37.18694 12.19671 40074 ft 523 kts 110°
2026-05-05 12:41 37.16320 12.28293 40072 ft 523 kts 110°
2026-05-05 12:42 37.13942 12.36903 40078 ft 523 kts 111°
2026-05-05 12:42 37.11554 12.45519 40079 ft 524 kts 110°
2026-05-05 12:43 37.09157 12.54141 40078 ft 525 kts 110°
2026-05-05 12:43 37.06753 12.62759 40083 ft 525 kts 111°
2026-05-05 12:44 37.04340 12.71382 40080 ft 525 kts 111°
2026-05-05 12:44 37.01924 12.79987 40060 ft 525 kts 110°
2026-05-05 12:45 36.99491 12.88625 40083 ft 527 kts 111°
2026-05-05 12:45 36.97049 12.97272 40083 ft 527 kts 111°
2026-05-05 12:46 36.94602 13.05905 40083 ft 527 kts 111°
2026-05-05 12:46 36.92145 13.14544 40087 ft 527 kts 110°
2026-05-05 12:47 36.89681 13.23179 40089 ft 528 kts 111°
2026-05-05 12:47 36.87216 13.31796 40088 ft 528 kts 111°
2026-05-05 12:48 36.84737 13.40431 40089 ft 528 kts 111°
2026-05-05 12:48 36.82256 13.49046 40088 ft 528 kts 111°
2026-05-05 12:49 36.79766 13.57663 40089 ft 529 kts 111°
2026-05-05 12:49 36.77264 13.66297 40091 ft 529 kts 111°
2026-05-05 12:50 36.74758 13.74916 40092 ft 529 kts 111°
2026-05-05 12:50 36.72248 13.83525 40091 ft 529 kts 111°
2026-05-05 12:51 36.69726 13.92146 40095 ft 529 kts 111°
2026-05-05 12:51 36.67215 14.00703 40094 ft 530 kts 111°
2026-05-05 12:52 36.64689 14.09282 40096 ft 530 kts 111°
2026-05-05 12:52 36.62149 14.17887 40088 ft 530 kts 111°
2026-05-05 12:53 36.59603 14.26480 40097 ft 531 kts 111°
2026-05-05 12:53 36.57052 14.35067 40096 ft 532 kts 111°
2026-05-05 12:54 36.53282 14.47711 40097 ft 532 kts 111°
2026-05-05 12:55 36.50726 14.56271 40100 ft 532 kts 110°
2026-05-05 12:55 36.48858 14.64850 40099 ft 532 kts 103°
2026-05-05 12:56 36.47233 14.73541 40099 ft 532 kts 103°
2026-05-05 12:56 36.45685 14.82008 40100 ft 532 kts 103°
2026-05-05 12:57 36.44200 14.90067 40100 ft 532 kts 103°
2026-05-05 12:57 36.42950 14.96792 40104 ft 532 kts 103°
2026-05-05 12:58 36.41530 15.04380 40102 ft 532 kts 103°
2026-05-05 12:58 36.40078 15.12109 40102 ft 532 kts 103°
2026-05-05 12:59 36.38572 15.20090 40102 ft 532 kts 103°
2026-05-05 12:59 36.37206 15.27307 40105 ft 532 kts 103°
2026-05-05 13:00 36.35227 15.37721 40111 ft 533 kts 103°
2026-05-05 13:01 36.32592 15.51476 40113 ft 533 kts 103°
2026-05-05 13:01 36.31261 15.58422 40113 ft 533 kts 103°
2026-05-05 13:02 36.29876 15.65615 40117 ft 533 kts 103°
2026-05-05 13:02 36.28378 15.73351 40117 ft 533 kts 103°
2026-05-05 13:03 36.26643 15.82281 40117 ft 532 kts 103°
2026-05-05 13:03 36.24903 15.91201 40116 ft 532 kts 103°
2026-05-05 13:04 36.23157 16.00113 40120 ft 532 kts 103°
2026-05-05 13:04 36.21409 16.09000 40121 ft 530 kts 103°
2026-05-05 13:05 36.19657 16.17865 40121 ft 530 kts 103°
2026-05-05 13:05 36.17899 16.26725 40124 ft 530 kts 103°
2026-05-05 13:06 36.16136 16.35574 40129 ft 530 kts 104°
2026-05-05 13:06 36.14366 16.44420 40127 ft 529 kts 104°
2026-05-05 13:07 36.12590 16.53261 40129 ft 529 kts 104°
2026-05-05 13:07 36.10807 16.62100 40129 ft 529 kts 104°
2026-05-05 13:08 36.09019 16.70929 40137 ft 530 kts 104°
2026-05-05 13:08 36.07224 16.79756 40132 ft 530 kts 104°
2026-05-05 13:09 36.05419 16.88594 40131 ft 530 kts 104°
2026-05-05 13:09 36.03610 16.97417 40131 ft 530 kts 104°
2026-05-05 13:10 36.01805 17.06186 40138 ft 530 kts 104°
2026-05-05 13:10 35.99968 17.15076 40137 ft 531 kts 104°
2026-05-05 13:11 35.98134 17.23910 40138 ft 531 kts 104°
2026-05-05 13:11 35.96306 17.32687 40137 ft 531 kts 104°
2026-05-05 13:12 35.94459 17.41513 40142 ft 531 kts 104°
2026-05-05 13:12 35.92607 17.50336 40140 ft 532 kts 104°
2026-05-05 13:13 35.90746 17.59164 40140 ft 532 kts 104°
2026-05-05 13:13 35.88879 17.67985 40140 ft 531 kts 104°
2026-05-05 13:14 35.87005 17.76801 40144 ft 532 kts 104°
2026-05-05 13:14 35.85122 17.85629 40143 ft 532 kts 104°
2026-05-05 13:15 35.83232 17.94453 40145 ft 532 kts 104°
2026-05-05 13:15 35.81337 18.03271 40148 ft 532 kts 104°
2026-05-05 13:16 35.79435 18.12084 40149 ft 532 kts 104°
2026-05-05 13:16 35.77525 18.20896 40148 ft 532 kts 104°
2026-05-05 13:17 35.75612 18.29696 40148 ft 532 kts 105°
2026-05-05 13:17 35.73690 18.38498 40148 ft 532 kts 105°
2026-05-05 13:18 35.71761 18.47299 40151 ft 532 kts 104°
2026-05-05 13:18 35.69829 18.56080 40151 ft 532 kts 104°
2026-05-05 13:19 35.67891 18.64858 40151 ft 532 kts 105°
2026-05-05 13:19 35.65946 18.73634 40154 ft 532 kts 105°
2026-05-05 13:20 35.63994 18.82405 40152 ft 532 kts 105°
2026-05-05 13:20 35.62051 18.91106 40151 ft 532 kts 105°
2026-05-05 13:21 35.60088 18.99866 40154 ft 532 kts 105°
2026-05-05 13:21 35.58117 19.08624 40154 ft 532 kts 105°
2026-05-05 13:22 35.56142 19.17370 40158 ft 532 kts 105°
2026-05-05 13:22 35.54156 19.26133 40159 ft 533 kts 105°
2026-05-05 13:23 35.52164 19.34889 40157 ft 533 kts 105°
2026-05-05 13:23 35.50165 19.43645 40157 ft 533 kts 105°
2026-05-05 13:24 35.48158 19.52400 40156 ft 533 kts 105°
2026-05-05 13:24 35.46145 19.61153 40159 ft 533 kts 105°
2026-05-05 13:25 35.44127 19.69895 40160 ft 533 kts 105°
2026-05-05 13:25 35.42102 19.78639 40159 ft 533 kts 105°
2026-05-05 13:26 35.40068 19.87383 40159 ft 533 kts 105°
2026-05-05 13:26 35.38030 19.96119 40160 ft 533 kts 105°
2026-05-05 13:27 35.35984 20.04859 40159 ft 534 kts 105°
2026-05-05 13:27 35.33930 20.13596 40157 ft 534 kts 105°
2026-05-05 13:28 35.31871 20.22324 40159 ft 534 kts 105°
2026-05-05 13:28 35.29818 20.31000 40159 ft 534 kts 105°
2026-05-05 13:29 35.27746 20.39722 40159 ft 534 kts 105°
2026-05-05 13:29 35.25667 20.48444 40170 ft 534 kts 105°
2026-05-05 13:30 35.23582 20.57160 40163 ft 533 kts 105°
2026-05-05 13:30 35.21492 20.65863 40150 ft 533 kts 105°
2026-05-05 13:31 35.19398 20.74561 40147 ft 533 kts 105°
2026-05-05 13:31 35.17297 20.83248 40160 ft 533 kts 105°
2026-05-05 13:32 35.15189 20.91940 40168 ft 533 kts 105°
2026-05-05 13:32 35.13076 21.00621 40155 ft 533 kts 105°
2026-05-05 13:33 35.10956 21.09301 40155 ft 533 kts 105°
2026-05-05 13:33 35.08828 21.17979 40156 ft 533 kts 105°
2026-05-05 13:34 35.06701 21.26631 40162 ft 533 kts 105°
2026-05-05 13:34 35.04566 21.35282 40156 ft 533 kts 105°
2026-05-05 13:35 35.02422 21.43942 40143 ft 533 kts 105°
2026-05-05 13:35 35.00275 21.52581 40142 ft 533 kts 105°
2026-05-05 13:36 34.98118 21.61235 40143 ft 533 kts 105°
2026-05-05 13:36 34.95957 21.69875 40139 ft 533 kts 105°
2026-05-05 13:37 34.93790 21.78509 40145 ft 533 kts 105°
2026-05-05 13:37 34.91631 21.87081 40149 ft 532 kts 105°
2026-05-05 13:38 34.89457 21.95688 40145 ft 532 kts 105°
2026-05-05 13:38 34.87274 22.04300 40141 ft 532 kts 105°
2026-05-05 13:39 34.85086 22.12902 40141 ft 532 kts 105°
2026-05-05 13:39 34.82894 22.21493 40149 ft 531 kts 105°
2026-05-05 13:40 34.80697 22.30075 40137 ft 531 kts 105°
2026-05-05 13:40 34.78495 22.38649 40137 ft 531 kts 105°
2026-05-05 13:41 34.76285 22.47223 40143 ft 531 kts 105°
2026-05-05 13:41 34.74071 22.55787 40137 ft 531 kts 106°
2026-05-05 13:42 34.71853 22.64340 40138 ft 531 kts 106°
2026-05-05 13:42 34.69627 22.72897 40135 ft 531 kts 106°
2026-05-05 13:43 34.67397 22.81438 40139 ft 531 kts 106°
2026-05-05 13:43 34.65159 22.89987 40133 ft 531 kts 106°
2026-05-05 13:44 34.63292 22.97077 40163 ft 532 kts 106°
2026-05-05 13:44 34.61901 23.01246 40367 ft 533 kts 115°
2026-05-05 13:44 34.60296 23.05295 40618 ft 532 kts 115°
2026-05-05 13:45 34.58640 23.09300 40830 ft 531 kts 116°
2026-05-05 13:45 34.56935 23.13332 41065 ft 530 kts 117°
2026-05-05 13:45 34.53556 23.21234 41132 ft 531 kts 117°
2026-05-05 13:46 34.50158 23.29178 41130 ft 531 kts 117°
2026-05-05 13:46 34.46765 23.37125 41127 ft 531 kts 117°
2026-05-05 13:47 34.43370 23.45072 41121 ft 531 kts 117°
2026-05-05 13:47 34.39970 23.53012 41134 ft 531 kts 117°
2026-05-05 13:48 34.36564 23.60949 41128 ft 532 kts 117°
2026-05-05 13:48 34.33146 23.68893 41127 ft 532 kts 117°
2026-05-05 13:49 34.29723 23.76828 41130 ft 532 kts 117°
2026-05-05 13:49 34.26293 23.84765 41124 ft 533 kts 117°
2026-05-05 13:50 34.22856 23.92696 41120 ft 533 kts 117°
2026-05-05 13:50 34.19412 24.00627 41118 ft 533 kts 117°
2026-05-05 13:51 34.15964 24.08550 41124 ft 533 kts 117°
2026-05-05 13:51 34.12512 24.16463 41118 ft 533 kts 117°
2026-05-05 13:52 34.09048 24.24384 41121 ft 533 kts 117°
2026-05-05 13:52 34.05582 24.32294 41114 ft 534 kts 117°
2026-05-05 13:53 34.02103 24.40202 41109 ft 533 kts 118°
2026-05-05 13:53 33.97695 24.47337 41132 ft 531 kts 137°
2026-05-05 13:54 33.92311 24.53426 41111 ft 531 kts 140°
2026-05-05 13:54 33.86774 24.59319 41114 ft 532 kts 141°
2026-05-05 13:55 33.81259 24.65165 41108 ft 532 kts 140°
2026-05-05 13:55 33.75727 24.71067 41111 ft 532 kts 140°
2026-05-05 13:56 33.70199 24.76977 41109 ft 532 kts 140°
2026-05-05 13:56 33.64673 24.82877 41109 ft 532 kts 140°
2026-05-05 13:57 33.59140 24.88775 41111 ft 532 kts 141°
2026-05-05 13:57 33.53603 24.94663 41113 ft 532 kts 141°
2026-05-05 13:58 33.48059 25.00549 41114 ft 532 kts 141°
2026-05-05 13:58 33.42512 25.06426 41108 ft 532 kts 141°
2026-05-05 13:59 33.34188 25.15228 41110 ft 533 kts 141°
2026-05-05 14:00 33.25854 25.24016 41114 ft 532 kts 141°
2026-05-05 14:00 33.20296 25.29865 41110 ft 532 kts 141°
2026-05-05 14:01 33.14735 25.35706 41115 ft 532 kts 141°
2026-05-05 14:01 33.09175 25.41535 41111 ft 532 kts 141°
2026-05-05 14:02 33.03609 25.47360 41112 ft 532 kts 141°
2026-05-05 14:02 32.98044 25.53176 41110 ft 533 kts 141°
2026-05-05 14:03 32.92468 25.58991 41112 ft 532 kts 141°
2026-05-05 14:03 32.86898 25.64791 41112 ft 532 kts 142°
2026-05-05 14:04 32.81318 25.70592 41113 ft 532 kts 142°
2026-05-05 14:04 32.75742 25.76377 41113 ft 532 kts 142°
2026-05-05 14:05 32.70154 25.82164 41101 ft 532 kts 142°
2026-05-05 14:05 32.64569 25.87940 41114 ft 534 kts 142°
2026-05-05 14:06 32.58963 25.93725 41113 ft 534 kts 142°
2026-05-05 14:06 32.53355 25.99505 41111 ft 534 kts 142°
2026-05-05 14:07 32.47779 26.05241 41116 ft 535 kts 142°
2026-05-05 14:07 32.42160 26.11011 41117 ft 535 kts 142°
2026-05-05 14:08 32.36534 26.16780 41100 ft 535 kts 142°
2026-05-05 14:08 32.30913 26.22533 41113 ft 534 kts 142°
2026-05-05 14:09 32.25292 26.28277 41111 ft 534 kts 143°
2026-05-05 14:09 32.19683 26.33998 41116 ft 533 kts 143°
2026-05-05 14:10 32.14074 26.39708 41112 ft 533 kts 143°
2026-05-05 14:10 32.08458 26.45416 41117 ft 533 kts 143°
2026-05-05 14:11 32.02847 26.51111 41113 ft 532 kts 143°
2026-05-05 14:11 31.97238 26.56793 41111 ft 532 kts 143°
2026-05-05 14:12 31.91640 26.62455 41119 ft 532 kts 143°
2026-05-05 14:12 31.86047 26.68102 41121 ft 532 kts 143°
2026-05-05 14:13 31.80451 26.73743 41118 ft 532 kts 143°
2026-05-05 14:13 31.74988 26.79241 41098 ft 532 kts 143°
2026-05-05 14:14 31.69368 26.84888 41121 ft 531 kts 143°
2026-05-05 14:14 31.63767 26.90507 41121 ft 531 kts 144°
2026-05-05 14:15 31.58150 26.96132 41124 ft 531 kts 144°
2026-05-05 14:15 31.52531 27.01750 41124 ft 531 kts 144°
2026-05-05 14:16 31.46910 27.07360 41121 ft 531 kts 144°
2026-05-05 14:16 31.41288 27.12963 41112 ft 531 kts 144°
2026-05-05 14:17 31.35668 27.18555 41129 ft 530 kts 144°
2026-05-05 14:17 31.30555 27.24812 41162 ft 537 kts 129°
2026-05-05 14:18 31.26233 27.31971 41154 ft 540 kts 127°
2026-05-05 14:18 31.22052 27.39258 41145 ft 540 kts 127°
2026-05-05 14:19 31.17873 27.46540 41137 ft 540 kts 127°
2026-05-05 14:19 31.13663 27.53805 41125 ft 540 kts 127°
2026-05-05 14:20 31.09410 27.61035 41121 ft 540 kts 128°
2026-05-05 14:20 31.05101 27.68215 41093 ft 540 kts 128°
2026-05-05 14:21 31.00791 27.75389 41119 ft 540 kts 128°
2026-05-05 14:21 30.96486 27.82567 41118 ft 540 kts 128°
2026-05-05 14:22 30.92215 27.89685 41118 ft 540 kts 128°
2026-05-05 14:22 30.87886 27.96890 41113 ft 540 kts 128°
2026-05-05 14:23 30.83605 28.04000 41116 ft 540 kts 128°
2026-05-05 14:23 30.79290 28.11154 41116 ft 540 kts 129°
2026-05-05 14:24 30.74970 28.18302 41120 ft 540 kts 129°
2026-05-05 14:24 30.70648 28.25441 41115 ft 540 kts 129°
2026-05-05 14:25 30.66321 28.32574 41114 ft 540 kts 129°
2026-05-05 14:25 30.61990 28.39704 41111 ft 540 kts 129°
2026-05-05 14:26 30.57655 28.46824 41106 ft 540 kts 129°
2026-05-05 14:26 30.53312 28.53946 41102 ft 541 kts 129°
2026-05-05 14:27 30.48964 28.61064 41100 ft 541 kts 129°
2026-05-05 14:27 30.45351 28.66968 41089 ft 540 kts 129°
2026-05-05 14:28 30.40994 28.74079 41093 ft 541 kts 129°
2026-05-05 14:28 30.36637 28.81175 41090 ft 541 kts 129°
2026-05-05 14:29 30.32271 28.88273 41092 ft 541 kts 129°
2026-05-05 14:29 30.27905 28.95359 41089 ft 541 kts 129°
2026-05-05 14:30 30.23537 29.02437 41069 ft 541 kts 130°
2026-05-05 14:30 30.19166 29.09508 41082 ft 540 kts 130°
2026-05-05 14:31 30.14810 29.16569 41082 ft 540 kts 130°
2026-05-05 14:31 30.10463 29.23638 41080 ft 540 kts 129°
2026-05-05 14:32 30.06173 29.30755 41080 ft 540 kts 129°
2026-05-05 14:32 30.01885 29.37879 41077 ft 540 kts 129°
2026-05-05 14:33 29.97584 29.44996 41079 ft 540 kts 129°
2026-05-05 14:33 29.93282 29.52088 41079 ft 540 kts 129°
2026-05-05 14:34 29.88967 29.59185 41071 ft 540 kts 130°
2026-05-05 14:34 29.84648 29.66278 41077 ft 540 kts 130°
2026-05-05 14:35 29.80324 29.73367 41077 ft 541 kts 130°
2026-05-05 14:35 29.76000 29.80443 41077 ft 540 kts 130°
2026-05-05 14:36 29.71702 29.87467 41074 ft 541 kts 130°
2026-05-05 14:36 29.67369 29.94535 41073 ft 541 kts 130°
2026-05-05 14:37 29.63031 30.01598 41073 ft 541 kts 130°
2026-05-05 14:37 29.58691 30.08652 41069 ft 540 kts 130°
2026-05-05 14:38 29.54348 30.15699 41069 ft 541 kts 130°
2026-05-05 14:38 29.50000 30.22742 41066 ft 540 kts 130°
2026-05-05 14:39 29.45652 30.29773 41065 ft 540 kts 130°
2026-05-05 14:39 29.41295 30.36804 41066 ft 540 kts 130°
2026-05-05 14:40 29.36442 30.43264 41077 ft 533 kts 139°
2026-05-05 14:40 29.31346 30.49405 41078 ft 531 kts 140°
2026-05-05 14:41 29.26204 30.55497 41061 ft 531 kts 140°
2026-05-05 14:41 29.21070 30.61581 41062 ft 531 kts 140°
2026-05-05 14:42 29.15945 30.67665 41058 ft 531 kts 140°
2026-05-05 14:42 29.10813 30.73755 41076 ft 531 kts 140°
2026-05-05 14:43 29.05687 30.79829 41081 ft 531 kts 140°
2026-05-05 14:43 29.00553 30.85905 41068 ft 530 kts 140°
2026-05-05 14:44 28.95425 30.91962 41071 ft 530 kts 140°
2026-05-05 14:44 28.90299 30.98008 41075 ft 530 kts 140°
2026-05-05 14:45 28.85174 31.04042 41084 ft 529 kts 140°
2026-05-05 14:45 28.80052 31.10065 41091 ft 529 kts 140°
2026-05-05 14:46 28.74922 31.16088 41087 ft 529 kts 140°
2026-05-05 14:46 28.69792 31.22101 41090 ft 529 kts 140°
2026-05-05 14:47 28.64877 31.28382 41092 ft 536 kts 131°
2026-05-05 14:47 28.60958 31.35663 41105 ft 542 kts 124°
2026-05-05 14:48 28.57240 31.43121 41106 ft 540 kts 127°
2026-05-05 14:48 28.53077 31.50193 41110 ft 537 kts 130°
2026-05-05 14:49 28.48826 31.57186 41104 ft 537 kts 130°
2026-05-05 14:49 28.44575 31.64158 41099 ft 537 kts 130°
2026-05-05 14:50 28.40346 31.71080 41099 ft 537 kts 130°
2026-05-05 14:50 28.36086 31.78042 41097 ft 537 kts 130°
2026-05-05 14:51 28.31828 31.84989 41091 ft 536 kts 130°
2026-05-05 14:51 28.27564 31.91934 41089 ft 536 kts 130°
2026-05-05 14:52 28.23295 31.98875 41075 ft 536 kts 131°
2026-05-05 14:52 28.19029 32.05801 41084 ft 535 kts 131°
2026-05-05 14:53 28.14768 32.12706 41068 ft 534 kts 131°
2026-05-05 14:53 28.10506 32.19603 41050 ft 534 kts 131°
2026-05-05 14:54 28.06243 32.26490 41056 ft 534 kts 131°
2026-05-05 14:54 28.01978 32.33369 41047 ft 534 kts 131°
2026-05-05 14:55 27.97707 32.40248 40992 ft 533 kts 131°
2026-05-05 14:55 27.95592 32.43653 40510 ft 528 kts 131°
2026-05-05 14:55 27.93473 32.47057 39713 ft 530 kts 131°
2026-05-05 14:56 27.91345 32.50472 38958 ft 532 kts 131°
2026-05-05 14:56 27.89212 32.53894 38128 ft 533 kts 130°
2026-05-05 14:56 27.87077 32.57317 37225 ft 534 kts 130°
2026-05-05 14:56 27.84932 32.60753 36282 ft 536 kts 130°
2026-05-05 14:57 27.82782 32.64196 35364 ft 538 kts 130°
2026-05-05 14:57 27.80616 32.67658 34431 ft 540 kts 130°
2026-05-05 14:57 27.78446 32.71126 33512 ft 541 kts 130°
2026-05-05 14:57 27.76276 32.74593 32481 ft 542 kts 130°
2026-05-05 14:58 27.74089 32.78084 31458 ft 544 kts 130°
2026-05-05 14:58 27.71929 32.81527 30466 ft 545 kts 129°
2026-05-05 14:58 27.69706 32.85069 29363 ft 547 kts 129°
2026-05-05 14:58 27.67511 32.88565 28381 ft 545 kts 129°
2026-05-05 14:59 27.65354 32.91998 27523 ft 541 kts 129°
2026-05-05 14:59 27.63190 32.95439 26747 ft 536 kts 129°
2026-05-05 14:59 27.61047 32.98847 26015 ft 530 kts 129°
2026-05-05 14:59 27.58926 33.02214 25317 ft 525 kts 129°
2026-05-05 15:00 27.56818 33.05554 24601 ft 521 kts 129°
2026-05-05 15:00 27.55404 33.07795 24116 ft 518 kts 129°
2026-05-05 15:00 27.52654 33.12152 23142 ft 511 kts 128°
2026-05-05 15:00 27.50605 33.15395 22299 ft 501 kts 128°
2026-05-05 15:01 27.48620 33.18537 20994 ft 487 kts 129°
2026-05-05 15:01 27.46668 33.21622 19461 ft 481 kts 128°
2026-05-05 15:01 27.44739 33.24665 18057 ft 473 kts 128°
2026-05-05 15:01 27.42836 33.27666 16736 ft 471 kts 128°
2026-05-05 15:02 27.40946 33.30644 16121 ft 462 kts 128°
2026-05-05 15:02 27.39098 33.33557 15465 ft 454 kts 128°
2026-05-05 15:02 27.37275 33.36427 14716 ft 448 kts 128°
2026-05-05 15:02 27.35475 33.39260 14031 ft 442 kts 128°
2026-05-05 15:03 27.33694 33.42060 13232 ft 437 kts 128°
2026-05-05 15:03 27.31934 33.44826 12430 ft 432 kts 127°
2026-05-05 15:03 27.30192 33.47562 11633 ft 428 kts 127°
2026-05-05 15:03 27.28477 33.50254 11063 ft 418 kts 127°
2026-05-05 15:04 27.26828 33.52844 10885 ft 397 kts 127°
2026-05-05 15:04 27.25258 33.55309 10713 ft 379 kts 127°
2026-05-05 15:04 27.23725 33.57709 10549 ft 379 kts 128°
2026-05-05 15:04 27.22185 33.60116 10373 ft 380 kts 127°
2026-05-05 15:05 27.18993 33.64746 9460 ft 372 kts 141°
2026-05-05 15:05 27.16768 33.66181 8822 ft 358 kts 165°
2026-05-05 15:05 27.14491 33.66836 8350 ft 329 kts 172°
2026-05-05 15:06 27.12335 33.67375 7907 ft 306 kts 172°
2026-05-05 15:06 27.10299 33.67908 7293 ft 296 kts 171°
2026-05-05 15:06 27.08316 33.68448 7036 ft 293 kts 171°
2026-05-05 15:06 27.06343 33.69000 6799 ft 292 kts 170°
2026-05-05 15:07 27.04378 33.69568 6568 ft 292 kts 170°
2026-05-05 15:07 27.02410 33.70140 6319 ft 291 kts 168°
2026-05-05 15:07 27.00471 33.70732 6130 ft 286 kts 166°
2026-05-05 15:07 26.98679 33.71635 5728 ft 280 kts 148°
2026-05-05 15:08 26.97336 33.73123 5397 ft 267 kts 121°
2026-05-05 15:08 26.96841 33.75029 5141 ft 247 kts 88°
2026-05-05 15:08 26.96926 33.76893 4897 ft 234 kts 82°
2026-05-05 15:08 26.97090 33.78677 4473 ft 229 kts 80°
2026-05-05 15:09 26.97263 33.80462 3784 ft 233 kts 79°
2026-05-05 15:09 26.97484 33.82269 3061 ft 234 kts 72°
2026-05-05 15:09 26.98308 33.83711 2746 ft 211 kts 34°
2026-05-05 15:09 26.99607 33.84207 2645 ft 195 kts
2026-05-05 15:10 27.00928 33.84153 2507 ft 187 kts 346°
2026-05-05 15:10 27.02156 33.83755 2491 ft 182 kts 343°
2026-05-05 15:10 27.03380 33.83383 2497 ft 182 kts 344°
2026-05-05 15:10 27.04606 33.83028 2408 ft 177 kts 343°
2026-05-05 15:11 27.05739 33.82704 2167 ft 158 kts 343°
2026-05-05 15:11 27.06743 33.82407 1975 ft 142 kts 343°
2026-05-05 15:11 27.07642 33.82139 1797 ft 126 kts 342°
2026-05-05 15:11 27.08464 33.81893 1636 ft 120 kts 342°
2026-05-05 15:12 27.09268 33.81647 1468 ft 120 kts 343°
2026-05-05 15:12 27.10060 33.81415 1295 ft 116 kts 346°
2026-05-05 15:12 27.10846 33.81198 1173 ft 118 kts 347°
2026-05-05 15:12 27.11649 33.80963 1137 ft 119 kts 347°
2026-05-05 15:13 27.12466 33.80723 950 ft 123 kts 347°
2026-05-05 15:13 27.13278 33.80468 729 ft 119 kts 346°
2026-05-05 15:13 27.13808 33.80301 620 ft 119 kts 347°
2026-05-05 15:13 27.14609 33.80076 418 ft 119 kts 344°
2026-05-05 15:14 27.15410 33.79829 253 ft 120 kts 345°
2026-05-05 15:14 27.16209 33.79579 140 ft 118 kts 349°
2026-05-05 15:14 27.16957 33.79368 113 ft 100 kts 346°
2026-05-05 15:14 27.17461 33.79224 105 ft 64 kts 346°
2026-05-05 15:15 27.17873 33.79168 105 ft 56 kts 14°
2026-05-05 15:15 27.18233 33.79195 105 ft 49 kts 343°
2026-05-05 15:15 27.18556 33.79096 104 ft 48 kts 345°
2026-05-05 15:15 27.18837 33.79014 98 ft 21 kts 345°
2026-05-05 15:16 27.18946 33.79073 93 ft 21 kts 68°
2026-05-05 15:16 27.18993 33.79260 73 ft 29 kts 75°
2026-05-05 15:16 27.19052 33.79508 60 ft 35 kts 75°
2026-05-05 15:16 27.19114 33.79771 63 ft 25 kts 75°
2026-05-05 15:17 27.19109 33.79894 58 ft 10 kts 136°
2026-05-05 15:17 27.19038 33.79922 63 ft 13 kts 166°
2026-05-05 15:17 27.18911 33.79959 59 ft 27 kts 165°
2026-05-05 15:17 27.18674 33.80029 54 ft 43 kts 165°
2026-05-05 15:18 27.18368 33.80120 53 ft 47 kts 165°
2026-05-05 15:18 27.18051 33.80215 54 ft 48 kts 165°
2026-05-05 15:18 27.17832 33.80296 52 ft 23 kts 131°
2026-05-05 15:18 27.17838 33.80436 58 ft 19 kts 77°
2026-05-05 15:19 27.17787 33.80541 56 ft 17 kts 160°
2026-05-05 15:19 27.17704 33.80567 62 ft 8 kts 164°
2026-05-05 15:19 27.17692 33.80594 58 ft 4 kts 82°
2026-05-05 15:19 27.17701 33.80637 60 ft 8 kts 76°
2026-05-05 15:20 27.17707 33.80662 55 ft 0 kts 75°